Istanbul, Turkey

4:17 PM EET on February 12, 2016 (GMT +0200)
Ataturk

Weather History for LTBA - May, 2013

Change the Weather History Date:

Sunday, May 5, 2013

  Actual Average Record
Temperature  
Mean Temperature 68 °F -  
Max Temperature 79 °F 70 °F 80 °F (2001)
Min Temperature 56 °F 56 °F 50 °F (2000)
Cooling Degree Days 2    
Growing Degree Days 18 (Base 50)    
Moisture  
Dew Point 52 °F    
Average Humidity 59    
Maximum Humidity 83    
Minimum Humidity 31    
Precipitation  
Precipitation 0.00 in - - ()
Sea Level Pressure  
Sea Level Pressure 30.03 in    
Wind  
Wind Speed 6 mph ()    
Max Wind Speed 15 mph    
Max Gust Speed -    
Visibility 5.0 miles    
Events      
Averages and records for this station are not official NWS values.
T = Trace of Precipitation, MM = Missing Value Source: Averaged Metar Reports

Daily Weather History Graph

Daily Weather History Graph

Search for Another Location

Airport or City:

Trip Planner

Search our weather history database for the weather conditions in past years. The results will help you decide how hot, cold, wet, or windy it might be!

Date:

Astronomy

May. 05, 2013 Rise Set
Actual Time 5:57 AM EEST 8:05 PM EEST
Civil Twilight 5:27 AM EEST 8:35 PM EEST
Nautical Twilight 4:50 AM EEST 9:13 PM EEST
Astronomical Twilight 4:10 AM EEST 9:53 PM EEST
Moon 3:20 AM EEST (5/5) 3:43 PM EEST (5/5)
Length of Visible Light 15h 08m
Length of Day
14h 07m
Waning Crescent, 21% of the Moon is Illuminated
May 5
Waning Crescent
May 10
New
May 18
First Quarter
May 25
Full
May 31
Last Quarter

Hourly Weather History & Observations

Time (EEST) Temp. Dew Point Humidity Pressure Visibility Wind Dir Wind Speed Gust Speed Precip Events Conditions
12:20 AM 59.0 °F 53.6 °F 82% 29.98 in 4.3 mi Calm Calm - N/A   Unknown
12:50 AM 64.4 °F 51.8 °F 64% 29.95 in 4.3 mi NNE 4.6 mph - N/A   Unknown
1:20 AM 62.6 °F 51.8 °F 68% 29.98 in 4.3 mi Variable 2.3 mph - N/A   Unknown
1:50 AM 62.6 °F 51.8 °F 68% 29.98 in 4.3 mi SSE 3.5 mph - N/A   Unknown
2:20 AM 60.8 °F 51.8 °F 72% 29.98 in 4.3 mi NW 2.3 mph - N/A   Unknown
2:50 AM 59.0 °F 50.0 °F 72% 29.98 in - NW 4.6 mph - N/A   Clear
3:00 AM 59 °F 50 °F 65% 29.98 in 6 mi NW 4.6 mph - -  
3:20 AM 59.0 °F 50.0 °F 72% 29.98 in 4.3 mi NNW 6.9 mph - N/A   Unknown
3:50 AM 59.0 °F 48.2 °F 67% 29.98 in - North 5.8 mph - N/A   Clear
4:20 AM 59.0 °F 48.2 °F 67% 29.98 in - North 4.6 mph - N/A   Clear
4:50 AM 59.0 °F 50.0 °F 72% 29.98 in - NNW 8.1 mph - N/A   Clear
5:20 AM 59.0 °F 51.8 °F 77% 29.98 in - North 5.8 mph - N/A   Clear
5:50 AM 57.2 °F 51.8 °F 82% 29.98 in - Variable 2.3 mph - N/A   Clear
6:20 AM 57.2 °F 51.8 °F 82% 29.98 in - Variable 1.2 mph - N/A   Clear
6:50 AM 57.2 °F 51.8 °F 82% 30.01 in - NNW 4.6 mph - N/A   Clear
7:20 AM 59.0 °F 53.6 °F 82% 30.01 in - North 6.9 mph - N/A   Clear
7:50 AM 60.8 °F 53.6 °F 77% 30.01 in - NNW 5.8 mph - N/A   Clear
8:20 AM 62.6 °F 53.6 °F 72% 30.04 in - Variable 5.8 mph - N/A   Clear
8:50 AM 66.2 °F 51.8 °F 60% 30.04 in - NNW 3.5 mph - N/A   Clear
9:00 AM 66 °F 50 °F 45% 30.04 in 6 mi NNW 3.5 mph - -  
9:20 AM 68.0 °F 53.6 °F 60% 30.04 in - Variable 4.6 mph - N/A   Clear
9:50 AM 64.4 °F 53.6 °F 68% 30.04 in - South 5.8 mph - N/A   Clear
10:20 AM 66.2 °F 55.4 °F 68% 30.06 in - SE 3.5 mph - N/A   Clear
10:50 AM 73.4 °F 44.6 °F 36% 30.06 in - Variable 8.1 mph - N/A   Clear
11:20 AM 73.4 °F 46.4 °F 38% 30.06 in - North 10.4 mph - N/A   Clear
11:50 AM 73.4 °F 48.2 °F 41% 30.06 in - North 12.7 mph - N/A   Clear
12:20 PM 73.4 °F 48.2 °F 41% 30.06 in - North 11.5 mph - N/A   Clear
12:50 PM 75.2 °F 50.0 °F 41% 30.06 in - North 11.5 mph - N/A   Clear
1:20 PM 75.2 °F 53.6 °F 47% 30.06 in - North 12.7 mph - N/A   Clear
1:50 PM 77.0 °F 55.4 °F 47% 30.06 in - North 12.7 mph - N/A   Clear
2:20 PM 77.0 °F 53.6 °F 44% 30.06 in - North 12.7 mph - N/A   Clear
2:50 PM 77.0 °F 53.6 °F 44% 30.06 in - NNE 11.5 mph - N/A   Clear
3:00 PM 78 °F 53 °F 31% 30.06 in 6 mi NNE 11.5 mph - -  
3:20 PM 77.0 °F 51.8 °F 41% 30.06 in - NE 10.4 mph - N/A   Clear
3:50 PM 78.8 °F 51.8 °F 39% 30.04 in - NNE 10.4 mph - N/A   Clear
4:20 PM 78.8 °F 51.8 °F 39% 30.04 in - North 12.7 mph - N/A   Clear
4:50 PM 77.0 °F 51.8 °F 41% 30.04 in - North 11.5 mph - N/A   Clear
5:20 PM 75.2 °F 51.8 °F 44% 30.04 in - NNE 11.5 mph - N/A   Clear
5:50 PM 75.2 °F 53.6 °F 47% 30.04 in - North 11.5 mph - N/A   Clear
6:20 PM 73.4 °F 53.6 °F 50% 30.04 in - NE 12.7 mph - N/A   Clear
6:50 PM 73.4 °F 53.6 °F 50% 30.04 in - NNE 11.5 mph - N/A   Clear
7:20 PM 71.6 °F 53.6 °F 53% 30.06 in - NNE 11.5 mph - N/A   Clear
7:50 PM 69.8 °F 53.6 °F 56% 30.06 in - NNE 11.5 mph - N/A   Clear
8:20 PM 69.8 °F 53.6 °F 56% 30.06 in - NNE 11.5 mph - N/A   Clear
8:50 PM 69.8 °F 53.6 °F 56% 30.06 in - Variable 8.1 mph - N/A   Clear
9:00 PM 71 °F 54 °F 45% 30.08 in 6 mi NNE 8.1 mph - -  
9:20 PM 68.0 °F 55.4 °F 64% 30.06 in - North 8.1 mph - N/A   Clear
9:50 PM 66.2 °F 55.4 °F 68% 30.06 in - North 8.1 mph - N/A   Clear
10:20 PM 64.4 °F 55.4 °F 73% 30.09 in - North 10.4 mph - N/A   Clear
10:50 PM 64.4 °F 57.2 °F 77% 30.09 in - North 15.0 mph - N/A   Clear
11:20 PM 64.4 °F 57.2 °F 77% 30.09 in - North 12.7 mph - N/A   Clear
11:50 PM 64.4 °F 59.0 °F 83% 30.09 in - North 10.4 mph - N/A   Clear